Location: Augirein
(42.9320°N, 0.9181°E)
Time: 20:00:19
(UTC+00:00)

Meteor 2-21 - Pass Details

Date: 20 June 2021
Orbit: 933 x 967 km, 82.5° (Epoch: 01 August)

Event Time Altitude Azimuth Distance (km) Brightness Sun altitude
Exits shadow 02:36:15 16° 189° (S) 2,270 5.9 -14.3°
Maximum altitude 02:41:18 84° 277° (W) 970 4.4 -13.7°
Drops below altitude 10° 02:47:32 10° 7° (N) 2,710 7.8 -13.0°
Sets 02:50:03 0° 8° (N) 3,664 8.6 -12.7°
